Regional Weather Roundup
Issued by NWS Lake Charles, LA

Home | Current Version | Previous Version | Text Only | Print | Product List | Glossary On
Versions: 1 2 3 4 5 6 7 8 9 10 11 12 13 14 15 16 17 18 19 20 21 22 23 24 25 26 27 28 29 30 31 32 33 34 35 36 37 38 39 40 41 42 43 44 45 46 47 48
000
ASUS44 KLCH 030410
RWRLCH
RWRLCH
REGIONAL WEATHER ROUNDUP
NATIONAL WEATHER SERVICE LAKE CHARLES LA
1100 PM CDT WED SEP 02 2015

Note: "fair" indicates few or no clouds below 12,000 feet with no
significant weather and/or obstructions to visibility.


ACROSS SOUTHEAST TEXAS

CITY           SKY/WX    TMP DP  RH WIND       PRES   REMARKS
BEAUMONT       CLEAR     79  75  87 E7        29.96R
BEAUMONT CITY  MOCLDY    75  74  95 NE3       29.97S
ORANGE         PTCLDY   N/A N/A N/A CALM      29.99S
JASPER         CLEAR     74  70  88 CALM      30.01S
$$

ACROSS CENTRAL LOUISIANA

CITY           SKY/WX    TMP DP  RH WIND       PRES   REMARKS
LEESVILLE      CLEAR     73  70  92 VRB2      29.98R
FULLERTON        N/A     70  68  93 CALM      29.97R
ALEXANDRIA INT CLEAR     73  70  90 CALM      29.98R
ESLER FIELD    CLEAR     74  69  85 CALM      30.00R
DERIDDER         N/A     74  70  87 CALM      30.01R
OAKDALE          N/A     71  69  96 CALM      29.99R FOG
OPELOUSAS        N/A     74  72  93 SE3       30.00R
$$

ACROSS SOUTHWEST AND SOUTH CENTRAL LOUISIANA

CITY           SKY/WX    TMP DP  RH WIND       PRES   REMARKS
SULPHUR        PTCLDY    76  75  95 E6        29.99R
LAKE CHARLES   PTCLDY    76  73  91 E6        29.98S
CHENNAULT INT  MOCLDY    75  73  96 E3        29.99S
CAMERON PHI    MOCLDY    77  75  94 E10       30.00S
DEQUINCY         N/A     73  73 100 CALM      29.99S
JENNINGS         N/A     74  72  92 CALM      29.99S
LAFAYETTE      PTCLDY    76  73  91 CALM      30.00R
NEW IBERIA     PTCLDY    75  73  93 E3        30.01R
ABBEVILLE        N/A     74  73  99 CALM      30.00S
PATTERSON      CLEAR     75  72  88 CALM      30.02S
SALT POINT       N/A     77  75  93 E5        29.99S
$$

SELECTED SITES ACROSS THE REGION

CITY           SKY/WX    TMP DP  RH WIND       PRES   REMARKS
HOUSTON BUSH   PTCLDY    75  73  93 VRB3      29.95F
HOUSTON HOBBY  MOCLDY    79  75  87 CALM      29.94S
GALVESTON      CLEAR     81  75  82 SE7       29.95S
COLLEGE STAT   CLEAR     77  70  79 SE7       29.97R
CONROE         CLEAR     74  70  87 CALM      29.97S
HUNTSVILLE     MOCLDY    77  69  76 CALM      29.97F
LUFKIN         CLEAR     74  67  78 CALM      29.97F
SHREVEPORT     CLEAR     79  68  69 S3        29.97S
MONROE         CLEAR     75  71  87 CALM      29.99S
NATCHEZ MS     CLEAR     72  66  83 CALM      30.01S
BATON ROUGE    MOCLDY    76  71  85 E3        30.01R
N.O. INTL ARPT MOCLDY    79  71  76 CALM      30.00F
SLIDELL        MOCLDY    74  73  97 N3        30.00S
$$

MARINE REPORTS

STATION/POSITION TIME  TEMP    WIND        PRES    VSBY  WAVE
                       AIR SEA DIR/SP/G                  HT/PER
                 (UTC) (F)     (DEG/KT/KT) (MB)    (MI)  (FT/S)
BUOY 30 S HIGH I 0350   82 85  140/ 10/ 12 1014.1R         3/ 5
SEA RIM ST PARK  0400   81     150/  5/  7 1014.9F
PORT ARTHUR      0300      85  100/  5/  6 1014.6R
SABINE PASS N    0300   80 84   30/  2/  3 1014.8R
TEXAS POINT      NOT AVBL
CALCASIEU PASS   0300   77 83   90/  7/  9 1014.0R
LK CHARLES BEACH 0300   77 87                N/A
MARSH ISLAND     0300   80     130/  8/ 10   N/A           0
FRESH WATER LOCK 0300   77 83   30/  1/  3 1015.2R
AMERADA PASS     0300   77 83   70/  4/  6 1015.9R
$$



USA.gov is the U.S. government's official web portal to all federal, state and local government web resources and services.